Regional Weather Roundup
Issued by NWS Pendleton, OR

Home | Current Version | Previous Version | Text Only | Print | Product List | Glossary On
Versions: 1 2 3 4 5 6 7 8 9 10 11 12 13 14 15 16 17 18 19 20 21 22 23 24 25 26 27 28 29 30 31 32 33 34 35 36 37 38 39 40 41 42 43 44 45 46 47 48 49 50
977
ASUS46 KPDT 280425
RWRPDT
PENDLETON REGIONAL WEATHER ROUNDUP
NATIONAL WEATHER SERVICE PENDLETON OREGON
900 PM PDT FRI MAY 27 2016

NOTE: FAIR INDICATES FEW OR NO CLOUDS BELOW 12,000 FEET WITH NO
SIGNIFICANT WEATHER AND/OR OBSTRUCTIONS TO VISIBILITY.

# INDICATES UNOFFICIAL STATION AND DATA

WAZ520-280510-
EAST SLOPES OF WASHINGTON CASCADES

CITY            SKY/WX      TMP DP  RH  WIND    PRES   REMARKS
#CLE ELUM HS    N/A         46  40  79  W5      30.02R
#CLE ELUM 2NW   N/A         45  39  79  SW3     N/A
#GLENWOOD       N/A         49  40  71  S7      30.06R
#MANASTASH CYN  N/A         47  32  56  CALM    30.01S
#NELSON 3SW     N/A         42  37  82  CALM    30.25S
#NILE           N/A         48  37  65  CALM    29.31R
#RONALD 2NW     N/A         47  N/A N/A N1      29.93S
#TEANAWAY 4NE   N/A         47  39  74  SW3     N/A
#TROUT LAKE 1NE N/A         47  39  74  W7      30.10R
#TROUT LAKE 1E  N/A         48  40  74  CALM    30.06R
$$

WAZ521-280510-
SIMCOE HIGHLANDS

CITY            SKY/WX      TMP DP  RH  WIND    PRES   REMARKS
#CENTERVILLE 1SWN/A         47  39  74  SW7     30.05R
#GOLDENDALE 1NE N/A         52  28  39  S3      N/A
#GOLDENDALE 4W  N/A         51  43  74  W12     30.11S
#GOODNOE HILLS  N/A         53  41  64  W15     29.97R
#LYLE 6NE       N/A         50  42  74  S3      30.06R
$$

WAZ026-280510-
KITTITAS VALLEY

CITY            SKY/WX      TMP DP  RH  WIND    PRES   REMARKS
ELLENSBURG AP   PTCLDY      52  36  54  NW21G29 30.04R
#ELLENSBURG CWU N/A         51  38  61  NW10    29.98R
#ELLENSBURG 3NE N/A         49  39  68  N8      30.04R
#ELLENSBURG     N/A         53  41  64  W6      N/A
#ELLENSBURG 1E  N/A         51  N/A N/A CALM    N/A
#ELLENSBURG 13S N/A         56  36  47  E2      N/A
#KITTITAS 4N    N/A         48  36  63  N12     30.06R WCI 43
#KITTITAS 3S    N/A         51  39  63  NW12    30.01R
#THORP 6N       N/A         46  38  73  NW12    30.05R WCI 40
$$

WAZ027-280510-
YAKIMA VALLEY

CITY            SKY/WX      TMP DP  RH  WIND    PRES   REMARKS
SUNNYSIDE AP    PTCLDY      54  33  45  W5      30.03R
YAKIMA AIRPORT  PTCLDY      58  33  39  W12     30.03S
YAKIMA-VAGABOND MOCLEAR     55  31  40  NW8     30.01S
#DONALD 2NE     N/A         56  10  16  W3      28.87S
#GRANDVIEW      N/A         59  32  36  NW2     30.03R
#MABTON         N/A         59  38  45  W3      30.03R
#NACHES 2SW     N/A         52  38  59  W2      30.04R
#TERRACE HTS    N/A         55  33  43  N5      29.98R
#TOPPENISH      N/A         59  37  44  CALM    29.93R
#WEST VALLEY    N/A         55  35  47  NW2     30.01R
#W YAKIMA       N/A         55  37  51  W6      30.03R
#WHITE SWAN 5E  N/A         55  38  53  W1      30.03R
#WILEY CITY 3W  N/A         52  32  46  CALM    30.01R
$$

WAZ028-280510-
LOWER COLUMBIA BASIN...WASHINGTON

CITY            SKY/WX      TMP DP  RH  WIND    PRES   REMARKS
PASCO           PTCLDY      57  36  45  NW9     30.01R
PROSSER AWOS    N/A         57  36  45  SW6     30.05R
RICHLAND AWOS   PTCLDY      61  33  35  NW10    30.01R
#BENTON CITY    N/A         59  35  40  W3      29.91R
#CONNELL 5N     N/A         52  36  54  W3      29.98R
#CONNELL 5NW    N/A         53  38  57  W5      29.95R
#ELTOPIA 6NW    N/A         56  34  43  CALM    28.97R
#KAHLOTUS       N/A         57  32  38  N16     29.97R
#KENNEWICK 3S   N/A         60  35  39  CALM    30.01R
#PATERSON       N/A         59  41  51  N5      29.99R
#SAGEMOOR 2W    N/A         57  33  40  NW9     29.85R
#TOUCHET 2S     N/A         59  42  53  S9      29.97R
#WEST PASCO     N/A         61  36  39  NW5     30.06R
$$

WAZ029-280510-
FOOTHILLS OF THE BLUES...WASHINGTON

CITY            SKY/WX      TMP DP  RH  WIND    PRES   REMARKS
WALLA WALLA AP  PTCLDY      58  37  45  W12     30.01R
#CLYDE 6NW      N/A         58  30  34  W5      29.98R
#DAYTON SCHOOL  N/A         54  34  47  CALM    30.02R
#LOWDEN 2SE     N/A         57  42  57  W1      29.98R
#PLEASANT VIEW 1N/A         55  34  45  W2      30.02R
#PRESCOTT       N/A         59  41  51  W2      29.98R
#SUDBURY        N/A         62  N/A N/A CALM    N/A
#WHITMAN COLLEGEN/A         60  40  47  W5      30.05R
#WAITSBURG 5S   N/A         53  39  59  CALM    30.10R
#WAITSBURG 8N   N/A         50  12  21  S1      29.85R
#WALLA WALLA U  N/A         60  41  49  CALM    30.00R
#WHITMAN MISSIONN/A         57  42  57  CALM    30.01R
$$

WAZ030-280510-
BLUE MOUNTAINS...WASHINGTON

CITY            SKY/WX      TMP DP  RH  WIND    PRES   REMARKS
#DIXIE 5SE      N/A         51  34  52  SW3     29.96R
$$

ORZ009-041-WAZ024-280510-
COLUMBIA RIVER GORGE

CITY            SKY/WX      TMP DP  RH  WIND    PRES   REMARKS
HOOD RIVER AP   PTCLDY      54  39  57  W3      30.12S
THE DALLES AP   PTCLDY      58  39  49  NW15    30.10R
#ARLINGTON AIRPON/A         56  40  55  W16     30.06R
#ARLINGTON HS   N/A         62  39  43  W16     29.94R
#CELILO DOT     N/A         59  39  47  SW10    N/A
#LYLE           N/A         57  44  62  W20G26  30.11R
#MARYHILL 2W    N/A         55  42  61  W10     N/A
#MOSIER 1S      N/A         53  29  39  NW10    30.09S
#MURDOCK        N/A         57  43  59  W6      30.07R
#RUFUS DOT      N/A         60  40  47  W26     N/A
#SMITHVILLE     N/A         58  41  53  W13     30.02R

$$

ORZ510-280510-
NORTH CENTRAL OREGON

CITY            SKY/WX      TMP DP  RH  WIND    PRES   REMARKS
#ANTELOPE       N/A         48  35  60  W2      29.97R
#CHENOWITH 1W   N/A         49  38  66  W31     N/A    WCI 41
#COW CYN RST AREN/A         47  N/A N/A W6      N/A
#DUFUR 9E       N/A         47  39  74  W5      30.15R
#GRASS VALLEY   N/A         47  38  71  NW5     N/A
#GRASS VALLEY 1SN/A         48  37  65  NW3     30.03R
#KENT DOT       N/A         47  27  45  N6      N/A
#MAUPIN SCHOOL  N/A         56  38  51  W6      30.12R
#MORO SCHOOL    N/A         50  43  77  W9      30.09R
#SHANIKO 4NW    N/A         44  -59  1  W8      30.08R
#TYGH VALLEY 2NEN/A         54  38  55  CALM    30.07R
#WAPANITIA AIRPON/A         50  37  61  W7      30.09R
#WASCO DOT      N/A         53  38  57  W14     N/A
#WASCO AIRPORT  N/A         52  38  59  W16     N/A
#WASCO 5NE      N/A         50  40  68  SW7     30.07R
$$

ORZ511-280510-
CENTRAL OREGON

CITY            SKY/WX      TMP DP  RH  WIND    PRES   REMARKS
BEND AIRPORT    CLEAR       48  32  54  NW9     30.10R
MADRAS AIRPORT  CLEAR       52  39  61  N8      30.12R
PRINEVILLE AP   MOCLEAR     46  34  63  N8      30.11R
REDMOND AIRPORT CLEAR       50  30  46  NW13    30.10R
#ASHWOOD SCHOOL N/A         50  34  54  W2      30.06R
#BEND 1SW       N/A         45  34  65  CALM    N/A
#BEND-AWBREY    N/A         46  34  63  NE1     30.09R
#BEND-KIM LN    N/A         48  35  60  N2      30.08R
#CULVER         N/A         48  33  56  VRB1    30.05R
#CULVER 8W      N/A         48  31  51  CALM    30.09R
#LAKE BILLY CHINN/A         50  N/A N/A SE5     30.16R
#MADRAS 4S      N/A         49  12  22  CALM    30.16R
#POWELL BUTTE 3EN/A         50  35  56  N9      N/A
#POWELL BUTTE   N/A         47  33  58  NW1     29.98R
#PRINEVILLE 3N  N/A         47  36  65  N3      30.09R

$$


ORZ509-280510-
EAST SLOPES OF OREGON CASCADES

CITY            SKY/WX      TMP DP  RH  WIND    PRES   REMARKS
SISTERS AWOS    N/A         48  32  54  CALM    30.08R
#BLUE BOX PASS  N/A         39  N/A N/A NW2     N/A
#CAMP SHERMAN   N/A         46  33  60  CALM    30.16S
#LA PINE DOT    N/A         45  25  45  W8      N/A
#LA PINE 4NW    N/A         43  31  62  CALM    30.12R
#LAVA BUTTE DOT N/A         44  26  49  NE1     N/A
#SISTERS AIRPOR N/A         47  37  68  N2      30.17S
#SISTERS ODOT   N/A         48  N/A N/A S2      N/A
#SISTERS 1NW    N/A         48  31  51  NW10    N/A
#SISTERS 3N     N/A         46  28  49  W3      30.08S
#SUNRIVER       N/A         46  33  60  CALM    30.10R
#SUTTLE LK DOT  N/A         40  33  76  W12G28  N/A    WCI 33
#TUMALO 3W      N/A         45  32  60  N6      29.97R
#WANOGA BUTTE D N/A         38  24  57  NW6     N/A

$$

ORZ044-280510-
LOWER COLUMBIA BASIN...OREGON

CITY            SKY/WX      TMP DP  RH  WIND    PRES   REMARKS
HERMISTON       PTCLDY      59  39  47  SW15    30.01R
#BOARDMAN SCHOOLN/A         59  41  51  SW9     30.02R
#ECHO 8SW       N/A         57  40  53  W8      30.04R
#I-84 EX 198 DOTN/A         57  37  47  E16     N/A
#UMATILLA SCHOOLN/A         57  47  69  W7      30.05R
#UMATILLA       N/A         59  40  49  S8      29.94R
$$

ORZ507-280510-
NORTHERN FOOTHILLS OF THE BLUES

CITY            SKY/WX      TMP DP  RH  WIND    PRES   REMARKS
PENDLETON AIRPT PTCLDY      55  35  47  W17     30.03R
#ADAMS 3WNW     N/A         52  39  61  W8      30.02R
#ATHENA         N/A         52  40  63  CALM    30.05R
#CAYUSE         N/A         53  37  54  SW7     30.02R
#HELIX SCHOOL   N/A         53  39  59  W7      30.02R
#HELIX 3N       N/A         50  39  66  N13     30.01R
#HELIX 6SW      N/A         54  40  59  CALM    30.03
#HOLDMAN 5SE    N/A         53  40  61  SW3     30.03R
#HOLDMAN 6E     N/A         52  39  61  N9      29.83R
#M-F GROVE ELEM N/A         58  35  42  W7      29.99R
#M-FREEWATER 5SEN/A         56  40  55  S10     30.02R
#PENDLETON DNTN N/A         60  31  33  SW3     30.04S
#PDT AQUATIC CTRN/A         58  31  36  W9      30.05S
#PDT SUNRIDGE   N/A         56  37  49  W6      30.05R
#PENDLETON 7NW  N/A         56  39  53  W9      31.97S
#PILOT ROCK 1S  N/A         53  32  45  S1      30.05R
#PILOT ROCK     N/A         54  34  47  W6      30.07R
#TUTUILLA       N/A         54  37  52  CALM    30.03R
#UMAPINE 2E     N/A         58  41  53  SW5     29.98R
#WESTON SCHOOL  N/A         51  35  54  N6      29.93R

$$

ORZ508-280510-
SOUTHERN FOOTHILLS OF THE BLUES

CITY            SKY/WX      TMP DP  RH  WIND    PRES   REMARKS
LEXINGTON       PTCLDY      54  36  50  W15     30.10R
#AJAX           N/A         50  32  50  S7      27.83R
#CONDON SCHOOL  N/A         49  37  63  NW8     30.03S
#CONDON 5W      N/A         43  33  67  NW13    30.05R WCI 36
#FOSSIL SCHOOL  N/A         51  38  61  N1      30.03R
#HEPPNER EOC    N/A         51  36  56  W5      30.00R
#HEPPNER 4NE    N/A         47  36  65  W8      30.06R
#LEXINGTON 2SE  N/A         54  36  50  NW5     30.05R
#RUGGS 5NE      N/A         47  33  58  W8      30.23S
#RUGGS 2SW      N/A         47  35  63  W7      30.09R

$$

ORZ502-503-280510-
BLUE MOUNTAINS

CITY            SKY/WX      TMP DP  RH  WIND    PRES   REMARKS
MEACHAM         PTCLDY      45  28  51  CALM    30.06R
#BATTLE MTN DOT N/A         42  35  76  CALM    N/A
#CUTSFORTH PARK N/A         41  33  73  CALM    29.85R
#GREENHORN 9SW  N/A         45  30  55  CALM    26.23R
#HARDMAN 10S    N/A         61  34  36  N5      30.22S
#HEPPNER 15SE   N/A         41  33  73  W2      29.98S
#LADD CYN SMT   N/A         49  21  33  NW12    N/A    WCI 44
#LADD CREEK ODOTN/A         47  28  47  CALM    N/A
#LONG CREEK HS  N/A         47  37  68  CALM    N/A
#N POWDER DOT   N/A         47  29  49  N9      N/A
#PIKES PEAK     N/A         48  35  60  SW16    27.99S WCI 42
#TOLLGATE       N/A         39  32  76  S3      29.91R
#TROY SCHOOL    N/A         55  39  55  CALM    29.85R
#UKIAH          N/A         45  33  63  NW6     29.97R
#WESTON 4E      N/A         47  37  68  W6      30.02R
$$

ORZ505-280510-
JOHN DAY BASIN

CITY            SKY/WX      TMP DP  RH  WIND    PRES   REMARKS
JOHN DAY        N/A         N/A N/A N/A MISG    N/A
#DAYVILLE SCHOOLN/A         56  29  35  N1      30.01R
#MITCHELL       N/A         54  38  55  NW2     30.23R
#MONUMENT HS    N/A         56  31  38  VRB6    30.02R
#MT. VERNON 5SE N/A         48  30  49  CALM    30.00R
#SPRAY SCHOOL   N/A         56  N/A N/A CALM    N/A
#WINLOCK        N/A         47  35  63  CALM    30.03R
$$

ORZ506-280510-
OCHOCO AND JOHN DAY HIGHLANDS

CITY            SKY/WX      TMP DP  RH  WIND    PRES   REMARKS
#BUCK CREEK DOT N/A         53  30  41  NW7     N/A
#HORSE RIDGE DO N/A         47  29  49  NW10    N/A
#KEYES SMT DOT  N/A         47  31  53  N10     N/A
#PAULINA SCHOOL N/A         53  28  38  N6      N/A
#PINE MTN OBS   N/A         36  29  75  NW5     N/A
#PRAIRIE CITY   N/A         52  30  43  NW1     30.17
#SENECA         N/A         47  N/A N/A N1      N/A
#SENECA 9NW     N/A         43  27  53  CALM    30.00R
$$

ORZ049-280510-
GRANDE RONDE VALLEY

CITY            SKY/WX      TMP DP  RH  WIND    PRES   REMARKS
LA GRANDE       PTCLDY      48  21  34  W6      30.05R
#COVE           N/A         49  38  66  CALM    30.08R
#COVE SCHOOL    N/A         48  36  63  CALM    30.07R
#COVE 6NW       N/A         49  33  54  CALM    29.93R
#ELGIN 3N       N/A         47  30  51  CALM    30.02R
#ELGIN 1E       N/A         52  29  41  CALM    N/A
#ISLAND CITY 4N N/A         52  44  74  CALM    30.17S
#LADD CYN DOT   N/A         51  29  42  NW5     N/A
#UNION 1S       N/A         50  32  50  CALM    29.94R
$$

ORZ050-280510-
WALLOWA COUNTY

CITY            SKY/WX      TMP DP  RH  WIND    PRES   REMARKS
JOSEPH AIRPORT  PTCLDY      39  32  76  S5      N/A
#ENTERPRISE AP  N/A         49  29  46  CALM    29.98R
#ENTERPRISE HS  N/A         46  30  53  CALM    30.06R
#IMNAHA SCHOOL  N/A         53  37  54  CALM    30.02R
#IMNAHA 10S     N/A         48  36  63  SW2     30.03R
#JOSEPH 3N      N/A         41  25  53  CALM    30.06R
#JOSEPH 3W      N/A         38  32  79  SW3     29.88R
#LOSTINE 3SE    N/A         44  29  55  W1      30.04R
#MT HOWARD 8000 N/A         28  24  85  N5      30.05F
#PROMISE 1S     N/A         43  33  67  CALM    30.16R
#WALLOWA SCHOOL N/A         46  31  56  CALM    30.01R



$$



USA.gov is the U.S. government's official web portal to all federal, state and local government web resources and services.